Regional Weather Roundup
Issued by NWS Sioux Falls, SD

Home | Current Version | Previous Version | Graphics & Text | Print | Product List | Glossary Off
Versions: 1 2 3 4 5 6 7 8 9 10 11 12 13 14 15 16 17 18 19 20 21 22 23 24 25 26 27 28 29 30 31 32 33 34 35 36 37 38 39 40 41 42 43 44 45 46 47 48 49 50

761
ASUS43 KFSD 301210
RWRFSD

WEATHER ROUNDUP FOR SE SOUTH DAKOTA/SW MINNESOTA/NW IOWA
NATIONAL WEATHER SERVICE SIOUX FALLS SD
700 AM CDT MON MAY 30 2016

NOTE: "FAIR" INDICATES FEW OR NO CLOUDS BELOW 12,000 FEET WITH NO
SIGNIFICANT WEATHER AND OR OBSTRUCTIONS TO VISIBILITY.


SDZ038>040-050-052>070-301300-
SOUTHEAST SOUTH DAKOTA

CITY           SKY/WX    TMP DP  RH WIND       PRES   REMARKS
BROOKINGS      CLOUDY    61  53  75 E6        29.96F
CHAMBERLAIN    LGT RAIN  63  58  83 SE7       29.95S
6HR MIN TEMP:  62; 6HR MAX TEMP:  67; 6HR PCP:  0.01;

HURON          CLOUDY    61  56  83 S9G18     29.92F
6HR MIN TEMP:  59; 6HR MAX TEMP:  65; 6HR PCP:  0.20;

MADISON        FAIR      59  59 100 CALM      29.98S
MITCHELL       PTCLDY    61  58  90 E8        29.97R
6HR MIN TEMP:  60; 6HR MAX TEMP:  66; 6HR PCP:  0.08;

SIOUX FALLS    CLOUDY    62  53  72 SE6       29.99F
6HR MIN TEMP:  54; 6HR MAX TEMP:  64;

WINNER         PTSUNNY   61  56  83 SE14      29.97R
YANKTON        PTCLDY    63  55  77 NE7       29.99R
$$

MNZ071-072-080-081-089-090-097-098-301300-
SOUTHWEST MINNESOTA

CITY           SKY/WX    TMP DP  RH WIND       PRES   REMARKS
FAIRMONT       CLOUDY    63  48  59 SW6       30.05F
JACKSON        DRIZZLE   61  54  77 SE3       30.03F
LUVERNE        MOSUNNY   59  52  77 CALM      29.99F
MARSHALL       CLOUDY    64  53  67 SW3       30.00
6HR MIN TEMP:  56; 6HR MAX TEMP:  64;

MONTEVIDEO     CLOUDY    61  54  77 SW6       30.01F
PIPESTONE      PTSUNNY   61  55  82 CALM      30.00S
REDWOOD FALLS  PTSUNNY   60  52  74 SW6       30.01S
TRACY          CLOUDY    64  54  70 S7        30.01F
WINDOM         CLOUDY    63  54  72 CALM      30.02F
WORTHINGTON    PTSUNNY   60  54  80 E7        30.00F
$$

IAZ001>003-012>014-020>022-031-032-NEZ013-014-SDZ071-301300-
NORTHWEST IOWA

CITY           SKY/WX    TMP DP  RH WIND       PRES   REMARKS
CHEROKEE       PTSUNNY   63  55  75 NE6       30.02R
DENISON        SUNNY     61  57  88 E3        29.99R
ESTHERVILLE    LGT RAIN  58  53  84 NE15      29.99F
LE MARS        CLOUDY    63  55  77 E6        30.02R
ORANGE CITY    MOSUNNY   61  55  82 E5        30.02R
SHELDON        CLOUDY    63  54  72 E8G15     29.99S
SIOUX CITY     MOSUNNY   64  54  69 E7        29.99R
6HR MIN TEMP:  62; 6HR MAX TEMP:  67;

SPENCER        CLOUDY    59  54  83 SE5       30.02R
6HR MIN TEMP:  56; 6HR MAX TEMP:  62; 6HR PCP:  0.26;

STORM LAKE     MOSUNNY   64  54  68 NE14      30.03F
$$

ABBREVIATIONS USED IN REMARKS
   TC - TEMPERATURE IN CELSIUS
  WCI - WIND CHILL INDEX
   HX - HEAT INDEX
  VSB - VISIBILITY





USA.gov is the U.S. government's official web portal to all federal, state and local government web resources and services.